This is the latest recevied weather packets stored in our database for station/object K7SPS-10. If no packets are shown the sender has not sent any weather packets the latest 10 day(s).
| Time | Temp. | Humidity | Pressure | Rain* | Wind** | Luminosity | Snow |
|---|---|---|---|---|---|---|---|
| 1777495615 | 18.89° C | 36% | 1020.4 hPa | 0 mm | - | 421 W/m² | - |
| 1777495311 | 18.89° C | 37% | 1020.4 hPa | 0 mm | - | 245 W/m² | - |
| 1777495010 | 18.89° C | 37% | 1020.5 hPa | 0 mm | - | 223 W/m² | - |
| 1777494706 | 18.33° C | 38% | 1020.6 hPa | 0 mm | - | 196 W/m² | - |
| 1777494403 | 18.89° C | 37% | 1020.4 hPa | 0 mm | - | 200 W/m² | - |
| 1777494099 | 18.89° C | 37% | 1020.5 hPa | 0 mm | - | 204 W/m² | - |
| 1777493797 | 18.89° C | 38% | 1020.6 hPa | 0 mm | - | 250 W/m² | - |
| 1777493495 | 18.89° C | 38% | 1020.5 hPa | 0 mm | - | 253 W/m² | - |
| 1777493192 | 18.33° C | 39% | 1020.6 hPa | 0 mm | - | 295 W/m² | - |
| 1777492888 | 19.44° C | 40% | 1020.4 hPa | 0 mm | - | 231 W/m² | - |
| 1777492585 | 19.44° C | 40% | 1020.6 hPa | 0 mm | - | 223 W/m² | - |
| 1777492280 | 20° C | 41% | 1020.7 hPa | 0 mm | - | 892 W/m² | - |
| 1777491978 | 20° C | 38% | 1020.5 hPa | 0 mm | - | 834 W/m² | - |
| 1777491674 | 19.44° C | 36% | 1020.5 hPa | 0 mm | - | 810 W/m² | - |
| 1777491372 | 19.44° C | 37% | 1020.7 hPa | 0 mm | - | 803 W/m² | - |
| 1777491069 | 19.44° C | 38% | 1020.7 hPa | 0 mm | - | 803 W/m² | - |
| 1777490763 | 19.44° C | 38% | 1020.8 hPa | 0 mm | - | 796 W/m² | - |
| 1777490461 | 19.44° C | 38% | 1020.7 hPa | 0 mm | - | 801 W/m² | - |
| 1777490157 | 18.89° C | 38% | 1021.1 hPa | 0 mm | - | 798 W/m² | - |
| 1777489855 | 18.89° C | 40% | 1021.1 hPa | 0 mm | - | 794 W/m² | - |
| 1777489552 | 18.89° C | 40% | 1021 hPa | 0 mm | - | 794 W/m² | - |
| 1777489249 | 18.89° C | 37% | 1021.2 hPa | 0 mm | - | 811 W/m² | - |
| 1777488945 | 18.89° C | 40% | 1021.1 hPa | 0 mm | - | 817 W/m² | - |
| 1777488642 | 18.33° C | 39% | 1021.1 hPa | 0 mm | - | 828 W/m² | - |
| 1777488340 | 18.33° C | 39% | 1021.1 hPa | 0 mm | - | 825 W/m² | - |
* Rain latest hour (hover to see other rain measurements)
** Current wind speed in m/s (hover to see current wind gust speed)